SL-14 DEB, 45328

Orbit data source: Space-Track

SL-14 DEB, 45328 is space debris in LEO originally from a launch on Thu, 15 Aug 1991 UTC launched from the Plesetsk Missile And Space Complex (PKMTR). Debris objects in space refer to the collection of defunct objects orbiting the Earth. Examples of debris include non-operational satellites, rocket bodies, and fragments generated from explosions, collisions, or faulty payload assembly.

Loading next visibility...
Identifier
45328, 1991-056BS
Orbit
LEO
Country
Flag of CISCIS
Related business
Manufacturer
Unknown
Mission
Spacecraft
Bus & Motor
Unknown
Mass
Unknown
Launch date (UTC)
1991-08-15 (35 years ago)
Launch vehicle
Unknown
Launch site
Plesetsk Missile And Space Complex (PKMTR)
Object type
Payload
Rocket body
Debris
Shape & HBR
Unknown shape, 0.1 m
Radar Cross Section
Medium (>0.1 m² and <1 m²)

Expand to show TLE details & history
Last TLE update: 16 hours ago

TLE from 16 hours ago
0 SL-14 DEB
1 45328U 91056BS  26254.26564819  .00001261  00000-0  19954-2 0  9993
2 45328  82.5510 358.2129 0105179 284.3091  74.6388 13.46854744320350
Epoch: 2026-09-11T06:22Z
TLE epoch observation values (Epoch: 2026-09-11T06:22:32.003Z)
Latitude
-0.00002°
Longitude
-87.71193°
Altitude
1,066.679 km
Speed
7.328 km/s
True Right ascension
23h 52m 51s
True Declination
0° 00' 00"
Sunlit
Object was in full shadow at epoch
Visualization orbit readout
Latitude
Unknown
Longitude
Unknown
Altitude
Unknown
Speed
Unknown
Apparent Right ascension
Unknown
Apparent Declination
Unknown
Sunlit
N/A
Visualization observer readout
Local Sidereal Time
14:47:05
Azimuth
Unknown
Elevation
Unknown
Doppler factor
Unknown
Orbital elements
Apogee altitude
1,159.511 km
Perigee altitude
1,002.601 km
Semi-major axis
7,459.193 km
Eccentricity
0.01052
Inclination
82.551°
RAAN
358.2129°
Arg. of periapsis
284.3091°
True anomaly
75.80499°
Mean anomaly
74.6388°
Eccentric anomaly
75.2215°
Mean motion
3.36903 °/min
Orbital period
106.86 mins
BSTAR
0.0019954
Loading maneuver chart data...
Computing Atmospheric mass density...
Loading historical data...
Loading historical data...
Loading historical data...
Loading historical data...
Loading historical data...
Loading historical data...
Loading historical data...

Documentation

Showing up to 5 results
|